ZHUHAI-1 OHS-02 (43441 NORAD) Tracking and Keplerian Element Data

This shows tracking and keplerian element data for the satellite.

Feedback or suggestion? Click here.




ElementValue
Catalog43441
NameZHUHAI-1 OHS-02
Epoch Orbit451
Epoch Day145.88948256
Epoch Year2018
RAAN228.2671
Inclination97.4049
Eccentricity0.0009625
Argument of Perigee211.1979
Mean Anonmoly260.8924
Mean Motion15.17745684
Decay Rate7.62E-06
L11 43441U 18040C 18145.88948256 .00000762 00000-0 41028-4 0 9992
L22 43441 97.4049 228.2671 0009625 211.1979 260.8924 15.17745684 4510

Live tracking and technical data element details for ZHUHAI-1 OHS-02 (NORAD 43441). ZHUHAI-1 OHS-02 can be tracked NOW for your location showing map with azimuth and elevation plus other details from your city location.

Track the satellite on the map from your city or location and see movement details for azimuth, elevation, latitude, longitude, range, height, and movement on the map or in text.







IsCatalogInMostPopularTable: catalog: 43441, numindb: 54
Update: records affected: 1



GetName: 43441 ZHUHAI-1 OHS-02

Hit Count: updated at: Sat, 17 Nov 2018 05:03:42 GMT